• In Deutschland
  • Länderverzeichnis
  • Für 7 Tage
  • Wassertemperatur
  • Satellitenkarten
  • Wetterkarte
  • Widgets
  • user-avatar
    Anmelden

    Stündliche Wetter Newcastle

    Heute, 24 Januar, Mittwoch

    Zeit Temperatur Niederschläge Wind Luftdruck Luftfeuchtigkeit
    00:00 +22°C° 0 mm 4 m/S 757 mmHg 83%
    01:00 +22°C° 0 mm 4 m/S 757 mmHg 86%
    02:00 +22°C° 0 mm 4 m/S 757 mmHg 88%
    03:00 +21°C° 0 mm 3 m/S 757 mmHg 89%
    04:00 +21°C° 0 mm 3 m/S 757 mmHg 91%
    05:00 +22°C° 0 mm 3 m/S 757 mmHg 85%
    06:00 +24°C° 0 mm 3 m/S 758 mmHg 80%
    07:00 +25°C° 0 mm 3 m/S 758 mmHg 74%
    08:00 +29°C° 0 mm 3 m/S 758 mmHg 62%
    09:00 +33°C° 0 mm 3 m/S 757 mmHg 49%
    10:00 +37°C° 0 mm 3 m/S 757 mmHg 37%
    11:00 +38°C° 0 mm 4 m/S 757 mmHg 33%
    12:00 +40°C° 0 mm 4 m/S 756 mmHg 29%
    13:00 +41°C° 0 mm 5 m/S 756 mmHg 26%
    14:00 +40°C° 0 mm 6 m/S 756 mmHg 29%
    15:00 +40°C° 0 mm 6 m/S 755 mmHg 32%
    16:00 +39°C° 0 mm 7 m/S 755 mmHg 35%
    17:00 +35°C° 0 mm 7 m/S 755 mmHg 45%
    18:00 +33°C° 0 mm 7 m/S 756 mmHg 54%
    19:00 +29°C° 0 mm 7 m/S 756 mmHg 64%
    20:00 +28°C° 0 mm 6 m/S 756 mmHg 67%
    21:00 +27°C° 0 mm 6 m/S 756 mmHg 71%
    22:00 +26°C° 0 mm 6 m/S 757 mmHg 74%
    23:00 +24°C° 0 mm 6 m/S 757 mmHg 78%

    Morgen, 25 Januar, Donnerstag

    Zeit Temperatur Niederschläge Wind Luftdruck Luftfeuchtigkeit
    00:00 +25°C° 0 mm 5 m/S 757 mmHg 81%
    01:00 +23°C° 0 mm 4 m/S 757 mmHg 84%
    02:00 +22°C° 0 mm 4 m/S 757 mmHg 86%
    03:00 +22°C° 0 mm 4 m/S 757 mmHg 89%
    04:00 +22°C° 0 mm 4 m/S 757 mmHg 91%
    05:00 +22°C° 0 mm 3 m/S 757 mmHg 87%
    06:00 +24°C° 0 mm 3 m/S 757 mmHg 83%
    07:00 +25°C° 0 mm 3 m/S 757 mmHg 78%
    08:00 +28°C° 0 mm 3 m/S 757 mmHg 68%
    09:00 +32°C° 0 mm 4 m/S 757 mmHg 57%
    10:00 +35°C° 0 mm 4 m/S 757 mmHg 47%
    11:00 +36°C° 0 mm 4 m/S 757 mmHg 43%
    12:00 +37°C° 0 mm 5 m/S 756 mmHg 39%
    13:00 +39°C° 0 mm 6 m/S 756 mmHg 36%
    14:00 +39°C° 0 mm 6 m/S 756 mmHg 38%
    15:00 +38°C° 0 mm 7 m/S 755 mmHg 41%
    16:00 +37°C° 0 mm 8 m/S 755 mmHg 44%
    17:00 +33°C° 0,6 mm 7 m/S 755 mmHg 54%
    18:00 +30°C° 0,6 mm 6 m/S 756 mmHg 64%
    19:00 +27°C° 0,6 mm 5 m/S 756 mmHg 75%
    20:00 +27°C° 0,3 mm 5 m/S 757 mmHg 79%
    21:00 +26°C° 0,3 mm 5 m/S 757 mmHg 83%
    22:00 +25°C° 0,3 mm 4 m/S 758 mmHg 87%
    23:00 +25°C° 0 mm 4 m/S 758 mmHg 87%

    übermorgen, 26 Januar, Freitag

    Zeit Temperatur Niederschläge Wind Luftdruck Luftfeuchtigkeit
    00:00 +25°C° 0 mm 3 m/S 757 mmHg 88%
    01:00 +25°C° 0 mm 3 m/S 757 mmHg 88%
    02:00 +24°C° 0 mm 3 m/S 757 mmHg 90%
    03:00 +24°C° 0 mm 3 m/S 757 mmHg 91%
    04:00 +23°C° 0 mm 4 m/S 756 mmHg 92%
    05:00 +24°C° 0 mm 3 m/S 757 mmHg 89%
    06:00 +25°C° 0 mm 3 m/S 757 mmHg 86%
    07:00 +26°C° 0 mm 3 m/S 758 mmHg 83%
    08:00 +29°C° 0 mm 2 m/S 758 mmHg 71%
    09:00 +32°C° 0 mm 2 m/S 758 mmHg 59%
    10:00 +36°C° 0 mm 2 m/S 758 mmHg 47%
    11:00 +37°C° 0 mm 3 m/S 757 mmHg 44%
    12:00 +38°C° 0 mm 4 m/S 757 mmHg 41%
    13:00 +40°C° 0 mm 5 m/S 756 mmHg 38%
    14:00 +39°C° 0 mm 6 m/S 756 mmHg 41%
    15:00 +38°C° 0 mm 6 m/S 756 mmHg 45%
    16:00 +36°C° 0 mm 7 m/S 755 mmHg 48%
    17:00 +34°C° 0,1 mm 6 m/S 756 mmHg 56%
    18:00 +32°C° 0,1 mm 6 m/S 756 mmHg 63%
    19:00 +29°C° 0,1 mm 5 m/S 757 mmHg 71%
    20:00 +28°C° 0 mm 5 m/S 757 mmHg 76%
    21:00 +27°C° 0 mm 5 m/S 758 mmHg 80%
    22:00 +26°C° 0 mm 4 m/S 758 mmHg 85%
    23:00 +26°C° 0,1 mm 4 m/S 758 mmHg 87%

    27 Januar, Samstag

    Zeit Temperatur Niederschläge Wind Luftdruck Luftfeuchtigkeit
    00:00 +25°C° 0,1 mm 4 m/S 758 mmHg 90%
    01:00 +25°C° 0,1 mm 4 m/S 757 mmHg 93%
    02:00 +25°C° 0,1 mm 4 m/S 757 mmHg 94%
    03:00 +23°C° 0,1 mm 4 m/S 757 mmHg 95%
    04:00 +23°C° 0,1 mm 4 m/S 757 mmHg 96%
    05:00 +25°C° 0 mm 4 m/S 758 mmHg 92%
    06:00 +26°C° 0 mm 4 m/S 758 mmHg 89%
    07:00 +27°C° 0 mm 4 m/S 759 mmHg 86%
    08:00 +29°C° 0 mm 4 m/S 759 mmHg 75%
    09:00 +32°C° 0 mm 4 m/S 759 mmHg 65%
    10:00 +35°C° 0 mm 4 m/S 759 mmHg 54%
    11:00 +35°C° 0,2 mm 5 m/S 758 mmHg 54%
    12:00 +35°C° 0,2 mm 5 m/S 758 mmHg 54%
    13:00 +35°C° 0,2 mm 6 m/S 758 mmHg 55%
    14:00 +34°C° 0,5 mm 6 m/S 758 mmHg 59%
    15:00 +33°C° 0,5 mm 6 m/S 758 mmHg 63%
    16:00 +32°C° 0,5 mm 6 m/S 757 mmHg 67%
    17:00 +30°C° 0,1 mm 6 m/S 758 mmHg 71%
    18:00 +29°C° 0,1 mm 6 m/S 758 mmHg 75%
    19:00 +27°C° 0,1 mm 6 m/S 758 mmHg 79%
    20:00 +27°C° 0 mm 5 m/S 758 mmHg 81%
    21:00 +26°C° 0 mm 5 m/S 758 mmHg 83%
    22:00 +26°C° 0 mm 5 m/S 759 mmHg 86%
    23:00 +25°C° 0 mm 5 m/S 759 mmHg 88%

    28 Januar, Sonntag

    Zeit Temperatur Niederschläge Wind Luftdruck Luftfeuchtigkeit
    00:00 +25°C° 0 mm 4 m/S 759 mmHg 90%
    01:00 +23°C° 0 mm 4 m/S 758 mmHg 92%
    02:00 +23°C° 0 mm 4 m/S 758 mmHg 94%
    03:00 +24°C° 0 mm 3 m/S 758 mmHg 96%
    04:00 +22°C° 0 mm 3 m/S 758 mmHg 97%
    05:00 +23°C° 0 mm 4 m/S 758 mmHg 92%
    06:00 +25°C° 0 mm 4 m/S 759 mmHg 87%
    07:00 +26°C° 0 mm 4 m/S 759 mmHg 82%
    08:00 +28°C° 0,1 mm 5 m/S 759 mmHg 74%
    09:00 +29°C° 0,1 mm 5 m/S 759 mmHg 66%
    10:00 +32°C° 0,1 mm 5 m/S 759 mmHg 58%
    11:00 +33°C° 0,1 mm 5 m/S 759 mmHg 55%
    12:00 +33°C° 0,1 mm 5 m/S 758 mmHg 52%
    13:00 +34°C° 0,1 mm 5 m/S 758 mmHg 49%
    14:00 +34°C° 0 mm 6 m/S 757 mmHg 49%
    15:00 +33°C° 0 mm 6 m/S 757 mmHg 48%
    16:00 +33°C° 0 mm 6 m/S 757 mmHg 47%
    17:00 +30°C° 0 mm 5 m/S 757 mmHg 56%
    18:00 +28°C° 0 mm 5 m/S 757 mmHg 66%
    19:00 +26°C° 0 mm 4 m/S 757 mmHg 75%
    20:00 +25°C° 0 mm 4 m/S 758 mmHg 82%
    21:00 +23°C° 0 mm 4 m/S 758 mmHg 89%
    22:00 +22°C° 0 mm 3 m/S 758 mmHg 96%
    23:00 +22°C° 0 mm 3 m/S 758 mmHg 96%

    29 Januar, Montag

    Zeit Temperatur Niederschläge Wind Luftdruck Luftfeuchtigkeit
    00:00 +22°C° 0 mm 3 m/S 757 mmHg 96%
    01:00 +21°C° 0 mm 3 m/S 757 mmHg 96%
    02:00 +21°C° 0 mm 3 m/S 756 mmHg 97%
    03:00 +21°C° 0 mm 3 m/S 756 mmHg 97%
    04:00 +20°C° 0 mm 3 m/S 756 mmHg 98%
    05:00 +21°C° 0 mm 2 m/S 756 mmHg 93%
    06:00 +23°C° 0 mm 2 m/S 756 mmHg 88%
    07:00 +24°C° 0 mm 2 m/S 757 mmHg 83%
    08:00 +26°C° 0 mm 2 m/S 756 mmHg 74%
    09:00 +28°C° 0 mm 2 m/S 756 mmHg 65%
    10:00 +29°C° 0 mm 3 m/S 756 mmHg 56%
    11:00 +30°C° 0 mm 3 m/S 756 mmHg 54%
    12:00 +31°C° 0 mm 3 m/S 755 mmHg 52%
    13:00 +33°C° 0 mm 4 m/S 754 mmHg 50%
    14:00 +32°C° 0 mm 4 m/S 754 mmHg 52%
    15:00 +32°C° 0 mm 4 m/S 754 mmHg 53%
    16:00 +32°C° 0 mm 4 m/S 753 mmHg 54%
    17:00 +29°C° 0 mm 4 m/S 753 mmHg 61%
    18:00 +27°C° 0 mm 4 m/S 754 mmHg 68%
    19:00 +26°C° 0 mm 3 m/S 754 mmHg 75%
    20:00 +25°C° 0 mm 3 m/S 754 mmHg 83%
    21:00 +24°C° 0 mm 3 m/S 754 mmHg 90%
    22:00 +22°C° 0 mm 3 m/S 754 mmHg 97%
    23:00 +23°C° 0 mm 2 m/S 754 mmHg 97%
    Mehr zeigen